Philip, SD

3:46 PM MDT on October 01, 2016 (GMT -0600)
Philip

Weather History for KPHP - April, 2013

Change the Weather History Date:

Monday, April 1, 2013

  Actual Average Record
Temperature  
Mean Temperature 36 °F 41 °F  
Max Temperature 49 °F 54 °F 92 °F (2012)
Min Temperature 23 °F 28 °F 5 °F (1970)
Degree Days  
Heating Degree Days 29 24  
Month to date heating degree days 29 24  
Since 1 July heating degree days 6010 6327  
Cooling Degree Days 0 0  
Month to date cooling degree days 0 0  
Year to date cooling degree days 0 0  
Moisture  
Dew Point 23 °F    
Average Humidity 64    
Maximum Humidity 92    
Minimum Humidity 36    
Precipitation  
Precipitation 0.00 in 0.03 in 0.11 in (1958)
Month to date precipitation 0.00 0.03  
Year to date precipitation 1.22 2.08  
Sea Level Pressure  
Sea Level Pressure 30.26 in    
Wind  
Wind Speed 5 mph (East)    
Max Wind Speed 14 mph    
Max Gust Speed 17 mph    
Visibility 10 miles    
Events      
T = Trace of Precipitation, MM = Missing Value Source: NWS Daily Summary

Daily Weather History Graph

Daily Weather History Graph

Search for Another Location

Airport or City:

Trip Planner

Search our weather history database for the weather conditions in past years. The results will help you decide how hot, cold, wet, or windy it might be!

Date:

Astronomy

Apr. 01, 2013 Rise Set
Actual Time 6:27 AM MDT 7:13 PM MDT
Civil Twilight 5:58 AM MDT 7:43 PM MDT
Nautical Twilight 5:23 AM MDT 8:17 PM MDT
Astronomical Twilight 4:47 AM MDT 8:54 PM MDT
Moon 12:33 AM MDT 10:06 AM MDT
Length of Visible Light 13h 45m
Length of Day
12h 46m
Waning Gibbous, 66% of the Moon is Illuminated
Apr 1
Waning Gibbous
Apr 2
Last Quarter
Apr 10
New
Apr 18
First Quarter
Apr 25
Full

Hourly Weather History & Observations

Time (MDT) Temp. Windchill Dew Point Humidity Pressure Visibility Wind Dir Wind Speed Gust Speed Precip Events Conditions
12:55 AM 30.0 °F - 25.0 °F 82% 30.27 in 10.0 mi Calm Calm - N/A   Overcast
1:55 AM 30.0 °F - 25.0 °F 82% 30.27 in 10.0 mi Calm Calm - N/A   Overcast
2:55 AM 30.0 °F - 25.0 °F 82% 30.27 in 10.0 mi Calm Calm - N/A   Overcast
3:55 AM 30.0 °F - 25.0 °F 82% 30.27 in 10.0 mi Calm Calm - N/A   Overcast
4:55 AM 28.9 °F - 25.0 °F 85% 30.29 in 10.0 mi Calm Calm - N/A   Overcast
5:10 AM 30.2 °F 26.7 °F 24.8 °F 80% 30.23 in 10.0 mi East 3.5 mph - N/A   Overcast
5:40 AM 28.4 °F 23.3 °F 24.8 °F 86% 30.24 in 10.0 mi ENE 4.6 mph - N/A   Overcast
5:55 AM 28.9 °F 25.2 °F 25.0 °F 85% 30.30 in 10.0 mi East 3.5 mph - N/A   Overcast
6:35 AM 28.4 °F 22.2 °F 24.8 °F 86% 30.24 in 10.0 mi East 5.8 mph - N/A   Overcast
6:44 AM 28.4 °F 22.2 °F 24.8 °F 86% 30.24 in 10.0 mi East 5.8 mph - N/A   Overcast
6:55 AM 28.9 °F 22.8 °F 25.0 °F 85% 30.30 in 10.0 mi East 5.8 mph - N/A   Overcast
7:42 AM 28.4 °F 21.2 °F 26.6 °F 93% 30.25 in 10.0 mi East 6.9 mph - N/A   Overcast
7:55 AM 28.9 °F 20.4 °F 26.1 °F 89% 30.31 in 10.0 mi East 9.2 mph - N/A   Overcast
8:25 AM 28.4 °F 19.7 °F 24.8 °F 86% 30.26 in 10.0 mi East 9.2 mph - N/A   Overcast
8:45 AM 28.4 °F 20.4 °F 24.8 °F 86% 30.26 in 10.0 mi East 8.1 mph - N/A   Overcast
8:55 AM 28.9 °F 20.4 °F 24.1 °F 82% 30.32 in 10.0 mi East 9.2 mph - N/A   Overcast
9:55 AM 32.0 °F 24.8 °F 24.1 °F 73% 30.32 in 10.0 mi East 8.1 mph - N/A   Overcast
10:55 AM 36.0 °F 33.3 °F 25.0 °F 64% 30.31 in 10.0 mi East 3.5 mph - N/A   Overcast
11:55 AM 39.0 °F 36.8 °F 25.0 °F 57% 30.29 in 10.0 mi Variable 3.5 mph - N/A   Overcast
12:55 PM 42.1 °F - 23.0 °F 47% 30.27 in 10.0 mi Calm Calm - N/A   Partly Cloudy
1:55 PM 45.0 °F - 24.1 °F 44% 30.24 in 10.0 mi Calm Calm - N/A   Partly Cloudy
2:55 PM 46.9 °F - 23.0 °F 39% 30.21 in 10.0 mi NNE 4.6 mph - N/A   Clear
3:55 PM 48.9 °F - 23.0 °F 36% 30.20 in 10.0 mi North 4.6 mph - N/A   Clear
4:55 PM 46.9 °F - 23.0 °F 39% 30.21 in 10.0 mi ENE 11.5 mph - N/A   Mostly Cloudy
5:55 PM 45.0 °F 39.7 °F 21.9 °F 40% 30.21 in 10.0 mi NE 10.4 mph - N/A   Clear
6:55 PM 39.9 °F 33.9 °F 21.9 °F 49% 30.21 in 10.0 mi East 9.2 mph - N/A   Clear
7:55 PM 33.1 °F 26.1 °F 19.9 °F 59% 30.23 in 10.0 mi East 8.1 mph - N/A   Clear
8:55 PM 30.9 °F 23.5 °F 19.0 °F 61% 30.27 in 10.0 mi ESE 8.1 mph - N/A   Clear
9:55 PM 26.1 °F 18.4 °F 17.1 °F 69% 30.27 in 10.0 mi ESE 6.9 mph - N/A   Clear
10:55 PM 25.0 °F 18.1 °F 16.0 °F 69% 30.27 in 10.0 mi East 5.8 mph - N/A   Clear
11:55 PM 28.9 °F 21.9 °F 19.0 °F 67% 30.25 in 10.0 mi SSE 6.9 mph - N/A   Clear